Air Resources Laboratory banner image
Air Resources Laboratory web site National Oceanic and Atmospheric Administration (NOAA)

pa zone


PAZ001>072-171000-

Tabular State Forecast for Pennsylvania
National Weather Service State College PA
500 PM EST Sat Dec 16 2017

ROWS INCLUDE...
   Daily predominant daytime weather 6AM-6PM
   Forecast temperatures...early morning low/daytime high
         Probability of precipitation nighttime 6PM-6AM/daytime 6AM-6PM
          - indicates temperatures below zero
         MM indicates missing data


   FCST     FCST     FCST     FCST     FCST     FCST     FCST
   Sun      Mon      Tue      Wed      Thu      Fri      Sat
   Dec 17   Dec 18   Dec 19   Dec 20   Dec 21   Dec 22   Dec 23


...Pennsylvania/Western...
   Butler
   RAIN     MOCLDY   MOCLDY   PTCLDY   PTCLDY   SNOSHWR  MOCLDY
   25/38    34/40    37/47    28/36    24/42    32/47    28/36
    10/50    50/40    40/30    20/10    10/10    20/50    40/20

   Erie
   MOCLDY   CLOUDY   MOCLDY   MOCLDY   MOCLDY   RAIN     MOCLDY
   25/37    35/40    38/44    30/32    25/40    32/43    28/33
    50/20    40/40    40/30    30/30    10/10    40/60    60/40

   Franklin
   MOCLDY   RNSNOW   MOCLDY   PTCLDY   PTCLDY   SNOSHWR  MOCLDY
   23/35    32/39    36/44    27/33    22/38    31/44    26/33
    30/40    50/50    40/30    30/20    10/10    40/50    50/20

   Indiana
   RAIN     MOCLDY   MOCLDY   PTCLDY   PTCLDY   SNOSHWR  MOCLDY
   26/39    34/42    37/46    29/36    24/41    31/46    29/36
    10/50    50/40    40/30    20/10    10/10    20/50    40/20

   Latrobe
   RAIN     MOCLDY   MOCLDY   PTCLDY   PTCLDY   SNOSHWR  MOCLDY
   27/41    35/43    39/49    30/37    25/43    33/48    30/38
    10/50    50/40    40/30    20/10    10/10    10/50    40/20

   Pittsburgh
   RAIN     MOCLDY   MOCLDY   PTCLDY   PTCLDY   SHWRS    MOCLDY
   27/39    35/42    39/48    29/37    25/43    34/48    29/37
    10/50    50/40    30/20    10/10    10/10    20/50    40/20


...Pennsylvania/Central...
   Altoona
   RNSNOW   MOCLDY   PTCLDY   PTCLDY   PTCLDY   MOCLDY   MOCLDY
   26/41    33/44    37/50    31/37    26/42    32/46    30/38
    00/50    50/20    30/30    20/10    10/10    20/40    40/40

   Bradford
   MOCLDY   CLOUDY   SNOSHWR  MOCLDY   MOCLDY   FZRAIN   MOCLDY
   17/35    27/37    33/42    24/29    18/36    27/38    23/29
    70/10    40/40    50/50    40/30    20/10    30/60    60/40

   DuBois
   MOCLDY   RNSNOW   MOCLDY   PTCLDY   PTCLDY   SNOSHWR  MOCLDY
   23/35    32/37    35/43    26/32    21/36    29/42    26/32
    30/40    50/50    40/30    30/20    10/10    20/50    50/20

   Harrisburg
   MOCLDY   MOCLDY   PTCLDY   PTCLDY   PTCLDY   MOCLDY   MOCLDY
   26/41    32/45    36/53    34/41    28/43    30/48    34/42
    00/20    40/20    20/20    10/00    10/10    10/30    30/30

   Johnstown
   RNSNOW   MOCLDY   MOCLDY   PTCLDY   PTCLDY   MOCLDY   MOCLDY
   24/38    32/41    37/45    28/33    25/40    32/44    27/33
    10/60    60/40    40/40    20/20    10/10    20/40    40/40

   Selinsgrove
   MOCLDY   MOCLDY   MOCLDY   PTCLDY   PTCLDY   MOCLDY   MOCLDY
   22/37    30/41    35/50    31/38    24/40    27/46    31/39
    20/10    40/30    20/30    20/10    10/10    10/30    30/30

   State College
   MOCLDY   MOCLDY   MOCLDY   PTCLDY   PTCLDY   MOCLDY   MOCLDY
   22/38    31/41    35/49    30/36    23/40    30/44    29/37
    30/20    40/30    30/30    20/10    10/10    20/40    40/40

   Williamsport
   MOCLDY   MOCLDY   MOCLDY   PTCLDY   PTCLDY   MOCLDY   MOCLDY
   23/36    32/42    35/49    32/38    24/40    29/45    30/38
    40/10    40/30    30/30    20/10    10/10    10/40    40/40

   York
   MOCLDY   MOCLDY   PTCLDY   PTCLDY   PTCLDY   MOCLDY   MOCLDY
   26/43    33/46    37/54    34/41    28/43    31/49    34/43
    00/30    50/20    20/20    10/00    10/10    10/30    30/30


...Pennsylvania/Eastern...
   Allentown
   PTCLDY   MOCLDY   MOCLDY   PTCLDY   PTCLDY   MOCLDY   MOCLDY
   21/36    31/44    32/51    32/39    23/38    28/46    MM/MM
    10/10    30/10    10/10    10/00    10/10    10/30    30/20

   Hazelton
   MOCLDY   MOCLDY   MOCLDY   PTCLDY   PTCLDY   MOCLDY   MOCLDY
   21/33    28/40    34/45    29/36    23/38    MM/MM    MM/MM
    20/10    40/30    20/20    20/20    10/10    20/40    40/40

   Lancaster
   MOCLDY   MOCLDY   PTCLDY   PTCLDY   PTCLDY   MOCLDY   MOCLDY
   23/40    31/44    36/53    33/40    26/42    30/49    33/42
    00/10    40/20    10/20    10/00    10/10    10/30    30/30

   Mount Pocono
   PTCLDY   MOCLDY   MOCLDY   PTCLDY   PTCLDY   MOCLDY   MOCLDY
   15/30    24/37    33/45    28/32    19/31    26/39    MM/MM
    30/10    40/10    10/10    20/10    10/10    10/40    40/20

   Philadelphia
   PTCLDY   MOCLDY   PTCLDY   PTCLDY   PTCLDY   MOCLDY   MOCLDY
   26/41    36/46    38/57    37/43    28/39    32/51    MM/MM
    00/00    30/10    10/00    10/00    10/10    10/30    30/20

   Reading
   PTCLDY   MOCLDY   MOCLDY   PTCLDY   PTCLDY   MOCLDY   MOCLDY
   23/38    33/44    35/53    33/39    24/38    29/46    MM/MM
    00/00    30/10    10/10    10/00    10/10    10/30    30/20

   Wilkes Barre/Scranton
   MOCLDY   MOCLDY   MOCLDY   PTCLDY   PTCLDY   MOCLDY   MOCLDY
   19/33    28/41    34/46    30/36    23/38    MM/MM    MM/MM
    30/10    50/40    20/20    20/20    10/10    20/40    40/40



SCZ050-WAZ558-NCZ071-TXZ119-213-PAZ071-DCZ001-FLZ074-172-MI076-
NYZ176-178-MAZ016-IL014-TNZ027-NJZ106-GAZ044-MD014-162300-

...Gateway Observations for Charleston International...

CITY           SKY/WX    TMP DP  RH WIND       PRES   REMARKS
Chas Airport   PTCLDY    49  36  61 S8        30.26R
Seattle        CLOUDY    44  39  82 SE5       30.30F
Charlotte      CLOUDY    47  23  38 W3        30.22R
Dallas DFW     LGT RAIN  53  39  59 S17       30.02S
Dallas Love    LGT RAIN  52  41  66 S15G24    30.05S
Philladelphia  MOCLDY    40  24  53 SW13      30.07R WCI  32
Wash National  PTCLDY    45  23  42 S12       30.10R
Baltimore      PTCLDY    42  23  46 S5        30.08R
Miami          MOCLDY    77  60  55 E8        30.16R
Detroit        CLOUDY    31  23  72 NE10      30.07R WCI  22
Newark         CLOUDY    38  25  59 SW13      30.03R WCI  30
Laguardia      CLOUDY    39  24  55 W16G23    30.02R WCI  30
J F K          CLOUDY    38  27  64 W16       30.04R WCI  29
Boston Logan   MOCLDY    31  17  56 W18G26    29.98R WCI  19
Ft. Lauderdale CLOUDY    74  61  63 NE6       30.16R
Chicago O'Hare PTCLDY    45  26  47 CALM      29.93R
Chicago Midway PTCLDY    46  27  47 SW5       29.94R
Houston Bush   CLOUDY    57  36  45 SE8       30.07R
Houston Hobby  CLOUDY    55  42  61 E13G18    30.06R
Nashville      CLOUDY    50  28  42 S10       30.18R
Atlanta        MOCLDY    51  27  39 N7        30.23S


GAZ044-118-TXZ119-213-NCZ071-DCZ001-MDZ014-506-PAZ021-071-NJZ106-
NYZ176-178-MAZ106-OHZ011-021-055-MIZ076-KYZ091-ILZ014-INZ047-
MNZ060-ONZ431-162300-

...Gateway Observations for Savannah International...

CITY           SKY/WX    TMP DP  RH WIND       PRES   REMARKS
Savannah Arpt  PTCLDY    55  28  35 CALM      30.26R
Atlanta        MOCLDY    51  27  39 N7        30.23S
Charlotte      CLOUDY    47  23  38 W3        30.22R
Dallas DFW     LGT RAIN  53  39  59 S17       30.02S
Houston Bush   CLOUDY    57  36  45 SE8       30.07R
Wash National  PTCLDY    45  23  42 S12       30.10R
Wash Dulles    PTCLDY    41  23  48 S7        30.08R
Baltimore      PTCLDY    42  23  46 S5        30.08R
Philadelphia   MOCLDY    40  24  53 SW13      30.07R WCI  32
Newark         CLOUDY    38  25  59 SW13      30.03R WCI  30
Laguardia      CLOUDY    39  24  55 W16G23    30.02R WCI  30
J F K          CLOUDY    38  27  64 W16       30.04R WCI  29
Boston         MOCLDY    31  17  56 W18G26    29.98R WCI  19
Pittsburg      PTCLDY    43  26  51 SW6       30.03R
Akron          PTCLDY    41  25  53 W6        30.02R
Cleveland      PTCLDY    39  28  64 W5        30.06R WCI  36
Cincinnati     PTCLDY    48  27  44 SW12      30.06R
Columbus       CLEAR     44  28  52 SW9       30.04R
Detroit        CLOUDY    31  23  72 NE10      30.07R WCI  22
Chicago O'Hare PTCLDY    45  26  47 CALM      29.93R
Minneapolis    CLOUDY    29  23  78 CALM      29.99R
Indianapolis   PTCLDY    48  29  47 SW9       29.99S
Toronto Canada MOCLDY    19   9  63 N8        30.10R WCI   9


PAZ001>072-171330-

Tabular State Forecast for Pennsylvania
National Weather Service State College PA
519 PM EST Sat Dec 16 2017

ROWS INCLUDE...
   Daily predominant daytime weather 6AM-6PM
   Forecast temperatures...early morning low/daytime high
         Probability of precipitation nighttime 6PM-6AM/daytime 6AM-6PM
          - indicates temperatures below zero
         MM indicates missing data


   FCST     FCST     FCST     FCST     FCST     FCST     FCST
   Sun      Mon      Tue      Wed      Thu      Fri      Sat
   Dec 17   Dec 18   Dec 19   Dec 20   Dec 21   Dec 22   Dec 23

...PENNSYLVANIA/WESTERN...
   Butler
   RAIN     MOCLDY   MOCLDY   PTCLDY   PTCLDY   SHWRS    MOCLDY
   25/38    34/40    37/47    28/36    24/42    32/47    28/36
    10/50    50/40    40/30    20/10    10/10    20/50    40/20

   Erie
   MOCLDY   CLOUDY   MOCLDY   MOCLDY   MOCLDY   RAIN     MOCLDY
   25/37    35/40    38/44    30/32    25/40    32/43    28/33
    50/20    40/40    40/30    30/30    10/10    40/60    60/40

   Franklin
   MOCLDY   RNSNOW   MOCLDY   PTCLDY   PTCLDY   SHWRS    MOCLDY
   23/35    32/39    36/44    27/33    22/38    31/44    26/33
    30/40    50/50    40/30    30/20    10/10    40/50    50/20

   Indiana
   RAIN     MOCLDY   MOCLDY   PTCLDY   PTCLDY   SHWRS    MOCLDY
   26/39    34/42    37/46    29/36    24/41    31/46    29/36
    10/50    50/40    40/30    20/10    10/10    20/50    40/20

   Latrobe
   RAIN     MOCLDY   MOCLDY   PTCLDY   PTCLDY   SHWRS    MOCLDY
   27/41    35/43    39/49    30/37    25/43    33/48    30/38
    10/50    50/40    40/30    20/10    10/10    10/50    40/20

   Pittsburgh
   RAIN     MOCLDY   MOCLDY   PTCLDY   PTCLDY   SHWRS    MOCLDY
   27/39    35/42    39/48    29/37    25/43    34/48    29/37
    10/50    50/40    30/20    10/10    10/10    20/50    40/20

...PENNSYLVANIA/CENTRAL...
   Altoona
   RNSNOW   MOCLDY   PTCLDY   PTCLDY   PTCLDY   MOCLDY   MOCLDY
   26/41    33/44    37/50    31/37    26/42    32/46    30/38
    00/50    50/20    30/30    20/10    10/10    20/40    40/40

   Bradford
   MOCLDY   CLOUDY   SHWRS    MOCLDY   MOCLDY   RAIN     MOCLDY
   17/35    27/37    33/42    24/29    18/36    27/38    23/29
    70/10    40/40    50/50    40/30    20/10    30/60    60/40

   DuBois
   MOCLDY   RNSNOW   MOCLDY   PTCLDY   PTCLDY   SHWRS    MOCLDY
   23/35    32/37    35/43    26/32    21/36    29/42    26/32
    30/40    50/50    40/30    30/20    10/10    20/50    50/20

   Harrisburg
   MOCLDY   MOCLDY   PTCLDY   PTCLDY   PTCLDY   MOCLDY   MOCLDY
   26/41    32/45    36/53    34/41    28/43    30/48    34/42
    00/20    40/20    20/20    10/00    10/10    10/30    30/30

   Johnstown
   RNSNOW   MOCLDY   MOCLDY   PTCLDY   PTCLDY   MOCLDY   MOCLDY
   24/38    32/41    37/45    28/33    25/40    32/44    27/33
    10/60    60/40    40/40    20/20    10/10    20/40    40/40

   Selinsgrove
   MOCLDY   MOCLDY   MOCLDY   PTCLDY   PTCLDY   MOCLDY   MOCLDY
   22/37    30/41    35/50    31/38    24/40    27/46    31/39
    20/10    40/30    20/30    20/10    10/10    10/30    30/30

   State College
   MOCLDY   MOCLDY   MOCLDY   PTCLDY   PTCLDY   MOCLDY   MOCLDY
   22/38    31/41    35/49    30/36    23/40    30/44    29/37
    30/20    40/30    30/30    20/10    10/10    20/40    40/40

   Williamsport
   MOCLDY   MOCLDY   MOCLDY   PTCLDY   PTCLDY   MOCLDY   MOCLDY
   23/36    32/42    35/49    32/38    24/40    29/45    30/38
    40/10    40/30    30/30    20/10    10/10    10/40    40/40

   York
   MOCLDY   MOCLDY   PTCLDY   PTCLDY   PTCLDY   MOCLDY   MOCLDY
   26/43    33/46    37/54    34/41    28/43    31/49    34/43
    00/30    50/20    20/20    10/00    10/10    10/30    30/30

...PENNSYLVANIA/EASTERN...
   Allentown
   MOCLDY   MOCLDY   MOCLDY   PTCLDY   PTCLDY   MOCLDY   MOCLDY
   21/36    31/44    32/51    32/39    23/38    28/46    30/42
    10/10    30/10    10/10    10/00    10/10    10/30    30/20

   Hazelton
   MOCLDY   MOCLDY   MOCLDY   PTCLDY   PTCLDY   MOCLDY   MOCLDY
   21/33    28/40    34/45    29/36    23/38    28/43    28/36
    20/10    40/30    20/20    20/20    10/10    20/40    40/40

   Lancaster
   MOCLDY   MOCLDY   PTCLDY   PTCLDY   PTCLDY   MOCLDY   MOCLDY
   23/40    31/44    36/53    33/40    26/42    30/49    33/42
    00/10    40/20    10/20    10/00    10/10    10/30    30/30

   Mount Pocono
   MOCLDY   MOCLDY   MOCLDY   PTCLDY   PTCLDY   MOCLDY   MOCLDY
   15/30    24/37    33/45    28/32    19/31    26/39    25/36
    30/10    40/10    10/10    20/10    10/10    10/40    40/20

   Philadelphia
   PTCLDY   MOCLDY   PTCLDY   PTCLDY   PTCLDY   MOCLDY   MOCLDY
   26/41    36/46    38/57    37/43    28/39    32/51    38/46
    00/00    30/10    10/00    10/00    10/10    10/30    30/20

   Reading
   PTCLDY   MOCLDY   MOCLDY   PTCLDY   PTCLDY   MOCLDY   MOCLDY
   23/38    33/44    35/53    33/39    24/38    29/46    32/43
    00/00    30/10    10/10    10/00    10/10    10/30    30/20

   Wilkes Barre/Scranton
   MOCLDY   MOCLDY   MOCLDY   PTCLDY   PTCLDY   MOCLDY   MOCLDY
   19/33    28/41    34/46    30/36    23/38    28/44    29/36
    30/10    50/40    20/20    20/20    10/10    20/40    40/40



SCZ050-WAZ558-NCZ071-TXZ119-213-PAZ071-DCZ001-FLZ074-172-MI076-
NYZ176-178-MAZ016-IL014-TNZ027-NJZ106-GAZ044-MD014-162300-

...Gateway Observations for Charleston International...

CITY           SKY/WX    TMP DP  RH WIND       PRES   REMARKS
Chas Airport   PTCLDY    49  36  61 S8        30.26R
Seattle        CLOUDY    44  39  82 SE5       30.30F
Charlotte      CLOUDY    47  23  38 W3        30.22R
Dallas DFW     LGT RAIN  53  39  59 S17       30.02S
Dallas Love    LGT RAIN  52  41  66 S15G24    30.05S
Philladelphia  MOCLDY    40  24  53 SW13      30.07R WCI  32
Wash National  PTCLDY    45  23  42 S12       30.10R
Baltimore      PTCLDY    42  23  46 S5        30.08R
Miami          MOCLDY    77  60  55 E8        30.16R
Detroit        CLOUDY    31  23  72 NE10      30.07R WCI  22
Newark         CLOUDY    38  25  59 SW13      30.03R WCI  30
Laguardia      CLOUDY    39  24  55 W16G23    30.02R WCI  30
J F K          CLOUDY    38  27  64 W16       30.04R WCI  29
Boston Logan   MOCLDY    31  17  56 W18G26    29.98R WCI  19
Ft. Lauderdale CLOUDY    74  61  63 NE6       30.16R
Chicago O'Hare PTCLDY    45  26  47 CALM      29.93R
Chicago Midway PTCLDY    46  27  47 SW5       29.94R
Houston Bush   CLOUDY    57  36  45 SE8       30.07R
Houston Hobby  CLOUDY    55  42  61 E13G18    30.06R
Nashville      CLOUDY    50  28  42 S10       30.18R
Atlanta        MOCLDY    51  27  39 N7        30.23S


GAZ044-118-TXZ119-213-NCZ071-DCZ001-MDZ014-506-PAZ021-071-NJZ106-
NYZ176-178-MAZ106-OHZ011-021-055-MIZ076-KYZ091-ILZ014-INZ047-
MNZ060-ONZ431-162300-

...Gateway Observations for Savannah International...

CITY           SKY/WX    TMP DP  RH WIND       PRES   REMARKS
Savannah Arpt  PTCLDY    55  28  35 CALM      30.26R
Atlanta        MOCLDY    51  27  39 N7        30.23S
Charlotte      CLOUDY    47  23  38 W3        30.22R
Dallas DFW     LGT RAIN  53  39  59 S17       30.02S
Houston Bush   CLOUDY    57  36  45 SE8       30.07R
Wash National  PTCLDY    45  23  42 S12       30.10R
Wash Dulles    PTCLDY    41  23  48 S7        30.08R
Baltimore      PTCLDY    42  23  46 S5        30.08R
Philadelphia   MOCLDY    40  24  53 SW13      30.07R WCI  32
Newark         CLOUDY    38  25  59 SW13      30.03R WCI  30
Laguardia      CLOUDY    39  24  55 W16G23    30.02R WCI  30
J F K          CLOUDY    38  27  64 W16       30.04R WCI  29
Boston         MOCLDY    31  17  56 W18G26    29.98R WCI  19
Pittsburg      PTCLDY    43  26  51 SW6       30.03R
Akron          PTCLDY    41  25  53 W6        30.02R
Cleveland      PTCLDY    39  28  64 W5        30.06R WCI  36
Cincinnati     PTCLDY    48  27  44 SW12      30.06R
Columbus       CLEAR     42  27  55 SW8       30.05R
Detroit        CLOUDY    31  23  72 NE10      30.07R WCI  22
Chicago O'Hare PTCLDY    45  26  47 CALM      29.93R
Minneapolis    CLOUDY    29  23  78 CALM      29.99R
Indianapolis   PTCLDY    48  29  47 SW9       29.99S
Toronto Canada MOCLDY    19   9  63 N8        30.10R WCI   9